Date String (YYYY-MM-DD hh:mm:ss) UTC,Instrument flags,Ambient pressure (hPa),Sample flow (lpm),Bypass flow (lpm),Sample temperature (°C),Ambient temperature (°C),ASC tube jacket temperature (°C),LED temperature (°C),Box temperature (°C),Sample RH (%),Span deviation,Mass concentration (μg/m³),Mass concentration (μg/m³),Mass concentration (μg/m³)
DateTimeUTC,F1_M11,P_M11,Q1_M11,Q2_M11,T1_M11,T2_M11,T3_M11,T4_M11,T5_M11,U1_M11,ZSPAN_M11,X0_M11,X2_M11,X1_M11
2023-02-21 23:00:00,,0803.0,5.01,0.00,24.5,23.1,00.0,33.3,26.3,13.3,0000.0,0007.50,0003.18,0002.45
2023-02-21 23:01:00,,0803.0,5.00,0.00,24.5,23.1,00.0,33.3,26.3,13.4,0000.0,0007.96,0003.15,0002.44
2023-02-21 23:02:00,,0803.0,4.98,0.00,24.5,23.2,00.0,33.4,26.3,13.4,0000.0,0007.91,0003.12,0002.42
2023-02-21 23:03:00,,0803.1,4.99,0.00,24.5,23.2,00.0,33.4,26.3,13.3,0000.0,0007.52,0003.10,0002.42
2023-02-21 23:04:00,,0803.2,4.99,0.00,24.5,23.2,00.0,33.4,26.4,13.3,0000.0,0006.87,0003.07,0002.41
2023-02-21 23:05:00,,0803.2,5.00,0.00,24.5,23.3,00.0,33.4,26.3,13.4,0000.0,0005.69,0003.00,0002.41
2023-02-21 23:06:00,,0803.2,5.00,0.00,24.5,23.2,00.0,33.4,26.4,13.5,0000.0,0005.58,0003.01,0002.42
2023-02-21 23:07:00,,0803.2,5.00,0.00,24.5,23.2,00.0,33.4,26.4,13.5,0000.0,0005.46,0002.97,0002.44
2023-02-21 23:08:00,,0803.2,4.99,0.00,24.5,23.1,00.0,33.4,26.4,13.0,0000.0,0005.59,0003.05,0002.43
2023-02-21 23:09:00,,0803.2,5.01,0.00,24.5,23.1,00.0,33.4,26.4,12.7,0000.0,0005.66,0003.03,0002.39
2023-02-21 23:10:00,,0803.2,5.01,0.00,24.6,23.2,00.0,33.4,26.4,12.6,0000.0,0005.87,0003.02,0002.37
2023-02-21 23:11:00,,0803.2,5.00,0.00,24.6,23.2,00.0,33.3,26.4,12.4,0000.0,0005.86,0002.99,0002.32
2023-02-21 23:12:00,,0803.1,4.99,0.00,24.5,23.1,00.0,33.3,26.4,12.3,0000.0,0005.02,0002.95,0002.26
2023-02-21 23:13:00,,0803.1,5.00,0.00,24.5,23.0,00.0,33.3,26.3,12.4,0000.0,0004.72,0002.90,0002.21
2023-02-21 23:14:00,,0803.0,5.01,0.00,24.5,23.1,00.0,33.3,26.3,12.5,0000.0,0004.76,0002.88,0002.15
2023-02-21 23:15:00,,0803.0,5.00,0.00,24.5,23.2,00.0,33.3,26.4,12.5,0000.0,0004.75,0002.82,0002.11
2023-02-21 23:16:00,,0803.0,4.99,0.00,24.6,23.2,00.0,33.3,26.4,12.6,0000.0,0005.12,0002.86,0002.07
2023-02-21 23:17:00,,0803.0,4.99,0.00,24.6,23.2,00.0,33.3,26.4,12.6,0000.0,0005.32,0002.89,0002.04
2023-02-21 23:18:00,,0803.1,5.00,0.00,24.6,23.1,00.0,33.3,26.4,12.6,0000.0,0005.67,0002.92,0001.99
2023-02-21 23:19:00,,0803.2,5.00,0.00,24.6,23.0,00.0,33.3,26.4,12.7,0000.0,0005.50,0002.82,0001.95
2023-02-21 23:20:00,,0803.2,5.01,0.00,24.6,23.0,00.0,33.3,26.4,12.9,0000.0,0005.67,0002.76,0001.96
2023-02-21 23:21:00,,0803.2,5.00,0.00,24.6,23.0,00.0,33.3,26.4,12.8,0000.0,0005.48,0002.78,0001.97
2023-02-21 23:22:00,,0803.1,5.00,0.00,24.6,23.0,00.0,33.3,26.4,12.8,0000.0,0005.63,0002.82,0001.98
2023-02-21 23:23:00,,0803.2,5.01,0.00,24.6,23.0,00.0,33.3,26.4,12.8,0000.0,0005.60,0002.83,0002.00
2023-02-21 23:24:00,,0803.1,5.00,0.00,24.6,23.0,00.0,33.3,26.4,12.9,0000.0,0005.73,0002.89,0002.04
2023-02-21 23:25:00,,0803.1,4.99,0.00,24.6,23.0,00.0,33.3,26.4,12.9,0000.0,0005.71,0002.88,0002.06
2023-02-21 23:26:00,,0803.1,4.99,0.00,24.6,23.0,00.0,33.3,26.5,12.8,0000.0,0005.65,0002.89,0002.09
2023-02-21 23:27:00,,0803.1,5.01,0.00,24.6,23.0,00.0,33.3,26.4,12.8,0000.0,0005.38,0002.89,0002.10
2023-02-21 23:28:00,,0803.1,5.00,0.00,24.6,23.0,00.0,33.3,26.5,12.8,0000.0,0005.35,0002.88,0002.12
2023-02-21 23:29:00,,0803.1,5.01,0.00,24.6,23.0,00.0,33.3,26.5,12.9,0000.0,0004.99,0002.82,0002.13
2023-02-21 23:30:00,,0803.2,5.00,0.00,24.6,22.9,00.0,33.3,26.4,13.0,0000.0,0005.22,0002.90,0002.16
2023-02-21 23:31:00,,0803.2,5.00,0.00,24.6,22.9,00.0,33.3,26.4,13.0,0000.0,0005.20,0002.98,0002.17
2023-02-21 23:32:00,,0803.2,5.00,0.00,24.6,22.9,00.0,33.3,26.4,12.9,0000.0,0005.32,0002.99,0002.19
2023-02-21 23:33:00,,0803.2,5.00,0.00,24.6,22.8,00.0,33.3,26.4,12.8,0000.0,0005.32,0002.96,0002.19
2023-02-21 23:34:00,,0803.2,5.00,0.00,24.6,22.8,00.0,33.3,26.4,12.8,0000.0,0005.50,0003.00,0002.19
2023-02-21 23:35:00,,0803.2,5.00,0.00,24.5,22.8,00.0,33.3,26.4,13.0,0000.0,0005.54,0002.96,0002.18
2023-02-21 23:36:00,,0803.2,5.01,0.00,24.5,22.8,00.0,33.3,26.4,12.8,0000.0,0005.53,0002.96,0002.17
2023-02-21 23:37:00,,0803.2,5.00,0.00,24.5,22.8,00.0,33.3,26.4,12.9,0000.0,0005.64,0002.96,0002.16
2023-02-21 23:38:00,,0803.2,5.00,0.00,24.5,22.8,00.0,33.3,26.3,13.0,0000.0,0005.93,0002.95,0002.14
2023-02-21 23:39:00,,0803.2,5.00,0.00,24.5,22.8,00.0,33.3,26.4,13.0,0000.0,0006.72,0002.88,0002.11
2023-02-21 23:40:00,,0803.2,5.00,0.00,24.5,22.8,00.0,33.3,26.4,13.0,0000.0,0007.62,0002.89,0002.09
2023-02-21 23:41:00,,0803.2,5.00,0.00,24.5,22.7,00.0,33.3,26.3,12.9,0000.0,0007.68,0002.81,0002.05
2023-02-21 23:42:00,,0803.1,5.00,0.00,24.5,22.7,00.0,33.3,26.3,12.9,0000.0,0007.56,0002.73,0002.02
2023-02-21 23:43:00,,0803.2,5.00,0.00,24.5,22.7,00.0,33.3,26.3,13.0,0000.0,0007.49,0002.70,0002.00
2023-02-21 23:44:00,,0803.2,5.00,0.00,24.5,22.6,00.0,33.3,26.3,12.9,0000.0,0007.43,0002.67,0001.98
2023-02-21 23:45:00,,0803.2,5.00,0.00,24.5,22.7,00.0,33.3,26.3,12.8,0000.0,0007.32,0002.65,0001.96
2023-02-21 23:46:00,,0803.1,5.00,0.00,24.5,22.7,00.0,33.3,26.3,13.1,0000.0,0007.35,0002.71,0001.97
2023-02-21 23:47:00,,0803.1,5.00,0.00,24.5,22.7,00.0,33.2,26.3,13.0,0000.0,0007.40,0002.74,0001.96
2023-02-21 23:48:00,,0803.2,5.00,0.00,24.4,22.7,00.0,33.2,26.2,12.9,0000.0,0007.26,0002.69,0001.95
2023-02-21 23:49:00,,0803.1,5.00,0.00,24.4,22.6,00.0,33.2,26.2,13.0,0000.0,0007.25,0002.65,0001.93
2023-02-21 23:50:00,,0803.1,5.00,0.00,24.4,22.6,00.0,33.2,26.2,13.1,0000.0,0008.24,0002.68,0001.92
2023-02-21 23:51:00,,0803.0,5.00,0.00,24.4,22.6,00.0,33.2,26.2,13.2,0000.0,0007.68,0002.64,0001.92
2023-02-21 23:52:00,,0803.1,5.00,0.00,24.4,22.6,00.0,33.2,26.2,13.3,0000.0,0007.47,0002.65,0001.92
2023-02-21 23:53:00,,0803.1,5.00,0.00,24.4,22.6,00.0,33.2,26.2,13.5,0000.0,0007.47,0002.67,0001.93
2023-02-21 23:54:00,,0803.1,5.00,0.00,24.4,22.7,00.0,33.2,26.2,13.3,0000.0,0008.00,0002.69,0001.92
2023-02-21 23:55:00,,0803.1,5.00,0.00,24.4,22.7,00.0,33.2,26.2,13.2,0000.0,0008.45,0002.70,0001.93
2023-02-21 23:56:00,,0803.1,5.00,0.00,24.4,22.8,00.0,33.2,26.2,13.2,0000.0,0008.58,0002.71,0001.93
2023-02-21 23:57:00,,0803.1,5.00,0.00,24.4,22.8,00.0,33.2,26.3,13.1,0000.0,0009.54,0002.71,0001.92
2023-02-21 23:58:00,,0803.1,5.00,0.00,24.4,22.8,00.0,33.2,26.3,13.1,0000.0,0009.57,0002.66,0001.92
2023-02-21 23:59:00,,0803.2,5.00,0.00,24.4,22.8,00.0,33.2,26.3,13.1,0000.0,0009.86,0002.67,0001.93
